Flag for U.S.A. Weather past 2 weeks in Farmington, New Mexico, U.S.A.

Now
82 °F

Clear.


Feels Like: 80 °F
Forecast: 63 / 94 °F
Wind: 3 mph from West

Location: Four Corners Regional Airport

Current Time: Jul 25, 2014 at 11:19:13 PM

Latest Report: Jul 25, 2014 at 10:53 PM


Visibility: 10 mi

Pressure: 29.88 "Hg

Humidity: 25%

Dew point: 43 °F

Location of FarmingtonLocation

Historic Weather in Farmington — Graph

°F

Farmington temperature yesterday

Maximum temperature yesterday: 90 °F (at 12:53 PM)
Minimum temperature yesterday: 69 °F (at 5:53 AM)
Average temperature yesterday: 81 °F

Past Weeks' High & Low Weather Summary

 TemperatureHumidityPressure
High97 °F (Jul 22, 5:53 PM)76% (Jul 11, 1:53 AM)30.14 "Hg (Jul 11, 1:53 AM)
Low57 °F (Jul 22, 5:53 AM)7% (Jul 22, 5:53 PM)29.73 "Hg (Jul 17, 6:53 PM)
Average79 °F34%29.95 "Hg
* Reported Jul 10 9:53 PM — Jul 25 9:53 PM, Farmington, Weather by CustomWeather, © 2014

Note: Actual official high and low records may vary slightly from our data, if they occured in-between our weather recording intervals... More about our weather records

Advertising

Farmington weather history for previous 24 hours

 ConditionsComfort  
Time TempWeatherWind HumidityBarometerVisibility
9:53 PM
Jul 25
84 °FClear.5 mph23%29.88 "Hg10 mi
8:53 PM87 °FSunny.8 mph19%29.86 "Hg10 mi
7:53 PM89 °FSunny.9 mph20%29.84 "Hg10 mi
6:53 PM91 °FPassing clouds.7 mph17%29.85 "Hg10 mi
5:53 PM92 °FScattered clouds.6 mph17%29.85 "Hg10 mi
4:53 PM94 °FScattered clouds.7 mph16%29.86 "Hg10 mi
3:53 PM95 °FPassing clouds.13 mph16%29.88 "Hg10 mi
2:53 PM93 °FSunny.8 mph16%29.90 "Hg10 mi
1:53 PM92 °FSunny.15 mph18%29.92 "Hg10 mi
12:53 PM92 °FSunny.12 mph20%29.94 "Hg10 mi
11:53 AM89 °FSunny.14 mph22%29.97 "Hg10 mi
10:53 AM84 °FSunny.5 mph27%29.99 "Hg10 mi
9:53 AM80 °FOvercast.6 mph36%30.01 "Hg10 mi
8:53 AM75 °FSunny.8 mph42%30.02 "Hg10 mi
7:53 AM72 °FSunny.7 mph48%29.99 "Hg10 mi
6:53 AM66 °FClear.3 mph52%30.00 "Hg10 mi
5:53 AM66 °FClear.No wind54%29.98 "Hg10 mi
4:53 AM68 °FClear.5 mph51%29.96 "Hg10 mi
3:53 AM71 °FClear.No wind49%29.95 "Hg10 mi
2:53 AM74 °FClear.9 mph45%29.94 "Hg10 mi
1:53 AM75 °FClear.10 mph45%29.96 "Hg10 mi
12:53 AM74 °FClear.9 mph46%29.97 "Hg10 mi
11:53 PM
Jul 24
74 °FClear.7 mph48%29.97 "Hg10 mi
Weather by CustomWeather, © 2014

See weather overviewHow to use our weather pages